User: anonymous   Login
Location: Carrizo Plain National Monument
(35.0903°N, 119.7316°W)
Time: 18:22:07
(UTC-07:00)
Language:

JUGNU - Orbit

View from above orbital plane
View from above orbital plane
View from above satellite
View from above satellite

Ground track
Ground track

The orbit data is extracted from the following two-line orbital elements,

1 37839U 11058B   20093.15206198 +.00000307 +00000-0 +21498-4 0  9999
2 37839 019.9623 025.4847 0018794 266.7909 223.5961 14.12675807437980
Epoch (UTC): 02 April 2020 03:38:58
Eccentricity: 0.0018794
inclination: 19.9623°
perigee height: 836 km
apogee height: 864 km
right ascension of ascending node: 25.4847°
argument of perigee: 266.7909°
revolutions per day: 14.12675807
mean anomaly at epoch: 223.5961°
orbit number at epoch: 43798

The dashed part of the orbit path shows where the satellite is in the earth's shadow,  

DLR